This demonstration page uses our WeatherBlox Daily Observations layout. Learn more.

39.92423, -83.80882

Hourly Observations for May 13, 2019

Temp ( °F °C ) Dew Point ( °F °C ) Humidity (%) Winds ( mph kmh ) Pressure ( in mb ) Visibility ( mi km ) Precip ( " mm )
12:56 am 00:56 Cloudy with Light Rain 50 10 50 10 100 100 WSW 6 9 29.76 1008 4 6.43736 0 0.0254
1:16 am 01:16 Cloudy with Light Rain 48 9 48 9 100 100 WSW 12 19 29.77 1008 4 6.43736 0 0.0254
1:56 am 01:56 Cloudy with Mist and Fog 49 9.4 49 9.4 100 100 WSW 9 15 29.75 1008 4 6.43736 0 0.0254
2:41 am 02:41 Cloudy 48 9 48 9 100 100 WSW 10 17 29.75 1007 9 14.48406 0.01 0.254
2:56 am 02:56 Cloudy 48 8.9 48 8.9 100 100 WSW 12 19 29.75 1007 10 16.0934 0.01 0.254
3:29 am 03:29 Cloudy with Mist and Fog 48 9 48 9 100 100 WSW 9 15 29.75 1007 6 9.65604 0 0
3:56 am 03:56 Cloudy 48 8.9 48 8.9 100 100 W 10 17 29.73 1007 8 12.87472 0 0
4:56 am 04:56 Cloudy with Light Rain 47 8.3 47 8.3 100 100 W 9 15 29.74 1007 2 3.21868 0 0.0254
5:07 am 05:07 Cloudy with Light Rain 48 9 48 9 100 100 WSW 10 17 29.75 1007 6 9.65604 0 0.0254
5:56 am 05:56 Cloudy with Light Rain 48 8.9 48 8.9 100 100 WSW 10 17 29.76 1008 2.5 4.02335 0 0.0254
6:10 am 06:10 Cloudy with Light Rain 48 9 48 9 100 100 WSW 10 17 29.77 1008 3 4.82802 0 0.0254
6:21 am 06:21 Cloudy with Light Rain 48 9 48 9 100 100 W 9 15 29.77 1008 2.5 4.02335 0 0.0254
6:48 am 06:48 Cloudy with Light Rain 48 9 48 9 100 100 WNW 8 13 29.78 1008 6 9.65604 0 0.0254
6:56 am 06:56 Cloudy 48 8.9 48 8.9 100 100 WNW 9 15 29.77 1008 10 16.0934 0 0.0254
7:07 am 07:07 Cloudy 48 9 48 9 100 100 W 10 17 29.79 1009 10 16.0934 0 0
7:56 am 07:56 Cloudy with Light Rain 48 8.9 48 8.9 100 100 WNW 9 15 29.8 1009 2 3.21868 0.01 0.254
8:03 am 08:03 Cloudy with Light Rain 48 9 48 9 100 100 WNW 12 19 29.81 1009 1.25 2.011675 0 0.0254
8:15 am 08:15 Cloudy with Light Rain 48 9 48 9 100 100 WNW 9 15 29.82 1010 3 4.82802 0 0.0254
8:56 am 08:56 Cloudy 49 9.4 48 8.9 97 97 W 9 15 29.82 1010 10 16.0934 0 0.0254
9:31 am 09:31 Cloudy with Light Rain 48 9 48 9 100 100 WNW 8 13 29.83 1010 5 8.0467 0 0.0254
9:47 am 09:47 Cloudy with Light Rain 48 9 48 9 100 100 NW 10 17 29.84 1010 2.5 4.02335 0 0.0254
9:50 am 09:50 Cloudy with Light Rain 48 9 48 9 100 100 NW 9 15 29.84 1010 3 4.82802 0 0.0254
9:56 am 09:56 Cloudy with Light Rain 49 9.4 48 8.9 97 97 WNW 8 13 29.83 1010 3 4.82802 0 0.0254
10:04 am 10:04 Cloudy with Light Rain 48 9 48 9 100 100 WNW 7 11 29.84 1010 2 3.21868 0.01 0.254
10:13 am 10:13 Cloudy with Light Rain 48 9 48 9 100 100 WNW 9 15 29.84 1010 1.75 2.816345 0.01 0.254
10:22 am 10:22 Cloudy with Light Rain 48 9 48 9 100 100 WNW 9 15 29.84 1010 2 3.21868 0.01 0.254
10:56 am 10:56 Cloudy with Light Rain 49 9.4 49 9.4 100 100 WNW 9 15 29.84 1010 4 6.43736 0.01 0.254
11:36 am 11:36 Cloudy 50 10 48 9 94 94 W 16 26 29.85 1011 10 16.0934 0 0.0254
12:34 pm 12:34 Cloudy with Light Rain 50 10 48 9 94 94 WNW 13 20 29.86 1011 8 12.87472 0.01 0.254
12:56 pm 12:56 Cloudy 51 10.6 48 8.9 89 89 WNW 15 24 29.87 1011 10 16.0934 0.01 0.254
1:04 pm 13:04 Cloudy 52 11 48 9 88 88 WNW 17 28 29.87 1011 10 16.0934 0 0
1:56 pm 13:56 Cloudy 51 10.6 47 8.3 86 86 W 13 20 29.88 1012 10 16.0934 0 0.0254
2:14 pm 14:14 Cloudy 52 11 48 9 88 88 WNW 13 20 29.88 1012 10 16.0934 0 0
2:52 pm 14:52 Cloudy with Light Rain 48 9 48 9 100 100 WNW 13 20 29.9 1012 5 8.0467 0 0.0254
2:56 pm 14:56 Cloudy with Light Rain 49 9.4 48 8.9 97 97 WNW 13 20 29.89 1012 7 11.26538 0 0.0254
3:43 pm 15:43 Cloudy 52 11 48 9 88 88 NW 13 20 29.89 1012 10 16.0934 0.01 0.254
3:56 pm 15:56 Cloudy 52 11.1 48 8.9 86 86 WNW 12 19 29.89 1012 10 16.0934 0.01 0.254
4:06 pm 16:06 Cloudy 52 11 46 8 82 82 WNW 13 20 29.9 1012 10 16.0934 0 0
4:13 pm 16:13 Cloudy 52 11 46 8 82 82 WNW 12 19 29.9 1012 10 16.0934 0 0
4:56 pm 16:56 Cloudy 53 11.7 46 7.8 77 77 NW 15 24 29.89 1012 10 16.0934 0 0
5:19 pm 17:19 Cloudy 52 11 46 8 82 82 NW 12 19 29.91 1013 10 16.0934 0 0.0254
5:56 pm 17:56 Cloudy 51 10.6 47 8.3 86 86 NW 10 17 29.92 1013 10 16.0934 0.01 0.254
6:23 pm 18:23 Cloudy 52 11 46 8 82 82 WNW 10 17 29.92 1013 10 16.0934 0 0
6:56 pm 18:56 Cloudy with Light Rain 50 10 47 8.3 89 89 WNW 12 19 29.93 1014 10 16.0934 0 0.0254
7:37 pm 19:37 Cloudy 50 10 48 9 94 94 WNW 12 19 29.94 1014 9 14.48406 0 0.0254
7:56 pm 19:56 Cloudy 50 10 47 8.3 89 89 WNW 8 13 29.95 1014 10 16.0934 0 0.0254
8:31 pm 20:31 Cloudy 50 10 48 9 94 94 W 7 11 29.95 1014 10 16.0934 0 0
8:56 pm 20:56 Cloudy 50 10 48 8.9 93 93 W 6 9 29.96 1015 10 16.0934 0 0
9:41 pm 21:41 Cloudy with Light Rain 50 10 48 9 94 94 NNW 7 11 29.97 1015 10 16.0934 0 0.0254
9:56 pm 21:56 Cloudy with Light Rain 50 10 46 7.8 86 86 NW 9 15 29.98 1015 10 16.0934 0 0.0254
10:56 pm 22:56 Cloudy 48 8.9 45 7.2 89 89 NW 6 9 30 1016 10 16.0934 0 0.0254
11:56 pm 23:56 Clear 45 7.2 44 6.7 97 97 WNW 6 9 30 1016 10 16.0934 0 0

Powered by AerisWeather